Погода в Слуцке

Погода в Слуцке : погода сейчас, прогноз погоды и архив. Всё, что Вы хотите узнать о погоде в Слуцке!

Хотите узнать прогноз погоды в Слуцке? Тогда Вам сюда: Погода в Слуцке

Поиск расширенной информации на нашем сайте:

Другие новости

Новости СМИ2

Главная страница сайта

Новости сайта

02.10.2013

Напоминаем, что на нашем новом сайте вы можете получить высокодетализированные прогнозы погоды по пунктам России, СНГ и мира (включающие важные для авиации метеовеличины, такие как направление и скорость ветра, видимость, явления погоды, количество и форма облачности, нижняя и верхняя граница облачности), а также ознакомиться с разнообразными материалами по авиационной метеорологии и подборкой полезных ссылок на эту тему.

Сайт Метеоцентр.Азия посвящён разработке технологий оптимизации авиаметеорологического обслуживания, включая проектирование и перспективное создание нескольких автоматизированных авиаметеорологических систем:
- система выпуска высокодетальных прогностических карт явлений погоды для нижнего воздушного пространства по России и ближнему зарубежью;
- система верификации прогнозов TAF (выпускаемых синоптиками официальных АМСГ РФ и ближнего зарубежья) и AUTOTAF (выпускаемых сайтом Метеоцентр.Азия) - выявление ошибок, онлайн-сопоставление с фактической погодой METAR, автоматическое внесение коррективов в прогнозы при резком отклонении фактической погоды от прогноза, подсчёт оправдываемости прогнозов по элементам и в целом;
- система обработки, анализа и отображения авиаметеорологической информации для применения провайдерами метеорологической информации.

Рекомендуем: Как выбрать свадебный торт свадебный.

Погода в Слуцке - сегодня

Время (UTC), дата Ветер
(°,м/с) 
Видим.   Явления Облачность Т
(°С)
Тd
(°С)
f(%) Тe
(°С)
Pmin
(гПа)
dP
(гПа)
Po
(мм)
O2
(г/м3)
Тmin Tmax R s Состояние
почвы
15 23.05.17 280 (З) 25000 м    5/0 верхняя 
[Ci sp]
+19.7 +8.1 47 +20  1013.4  -0.9  746  279           
18 23.05.17 300 (СЗ) 15000 м    3/0 верхняя 
[Ci sp]
+16 +10.5 70 +18  1013.5  746  282    +22.1       
21 23.05.17 тихо ()   12000 м    5/0 верхняя 
[Ci fib]
+13.4 +9.3 76 +14  1013.8  746  285           
00 24.05.17 тихо ()   12000 м    6/0 средняя 
[Ac trans]
+13.6 +9.9 78 +15  1013.1  -0.7  745  284           
03 24.05.17 270 (З) 10 км    9/3 600 м средняя, верхняя 
[Sc|Ac trans|Ci fib]
+11.8 +10 89 +14  1012.6  -0.5  745  286           
06 24.05.17 330 (СЗ) 18000 м    9/5 600 м средняя, верхняя 
[Sc|Ac trans|Ci fib]
+14.8 +12.1 84 +20  1012.9  0.5  745  283  +11.8         
09 24.05.17 240 (ЮЗ) 11000 м    5/0 верхняя 
[Cs]
+18.6 +8.8 53 +19  1012.6  -0.1  745  280           
12 24.05.17 250 (З) 25000 м    8/3 600 м верхняя 
[Cu hum|Cs]
+21.7 +8.6 43 +22  1011.5  -0.9  745  276           
15 24.05.17 260 (З) 25000 м    6/3 600 м верхняя 
[Cu med, cong|Ci]
+21.2 +5.3 35 +21  1010.7  -0.7  744  277           
18 24.05.17 200 (Ю) 21000 м    9/8 600 м средняя 
[Sc|Ac lent]
+17.5 +12.6 73 +23  1011.2  0.3  744  279    +22.2       
21 24.05.17 тихо ()   16000 м    9/0 средняя 
[Ac und]
+15.1 +12.2 83 +19  1011.7  0.2  744  282           
00 25.05.17 240 (ЮЗ) 12000 м    9/5 600 м средняя 
[Sc|Ac und]
+14.4 +12.4 88 +21  1011.2  -0.4  744  282           
03 25.05.17 010 (С) 17000 м    9/6 600 м средняя 
[Sc|Ac und]
+13.3 +10.4 83 +17  1012  0.5  744  284           
06 25.05.17 тихо ()   19000 м    9/5 600 м кучево-дожд., средняя 
[Cb cap|Ac und]
+15.5 +10.6 73 +18  1012.6  0.8  745  282  +12.8         
09 25.05.17 240 (ЮЗ) 19000 м    9/5 600 м средняя 
[Sc|Ac und]
+17.5 +9.8 61 +19  1013.5  746  281           
12 25.05.17 270 (З) 17000 м    8/5 600 м средняя, верхняя 
[Cu Sc|Ac cast|Ci sp]
+20.1 +7 43 +20  1012.7  -0.5  745  279           
15 25.05.17 300 (СЗ) 18000 м    8/3 600 м средняя, верхняя 
[Sc|Ac und|Ci sp]
+19.8 +6.2 41 +20  1012.7  -0.2  745  279           
18 25.05.17 310 (СЗ) 17000 м    8/0 средняя, верхняя 
[Ac trans|Ci]
+15.9 +8.9 63 +17  1013.2  0.4  746  282    +21.2       
21 25.05.17 тихо ()   17000 м    ясно 
+12.1 +8.5 79 +12  1013.9  0.4  746  286           
00 26.05.17 230 (ЮЗ) 15000 м    ясно 
+9.6 +6.8 83 +11  1014.2  0.1  746  289           
03 26.05.17 290 (З) 11000 м    3/0 средняя 
[Ac trans]
+8.1 +6.8 91 +9  1014.5  0.3  746  291           
06 26.05.17 320 (СЗ) 15000 м    5/0 верхняя 
[Ci sp]
+15.2 +8.2 63 +15  1014.3  0.2  746  283  +7.8         
09 26.05.17 300 (СЗ) 15000 м    5/3 1000 м верхняя 
[Cu hum|Ci sp]
+17.8 +8.8 56 +18  1014.2  746  281           
12 26.05.17 320 (СЗ) 6{10}  18000 м    8/6 600 м верхняя 
[Cu med, cong|Ci sp]
+19.8 +5.6 39 +20  1013.5  -0.6  746  279           
15 26.05.17 270 (З) 5{10}  18000 м    10/6 600 м кучево-дожд., средняя 
[Cb cap|As trans]
+16 +10.5 70 +18  1013.6  746  282           
Время (UTC), дата Ветер
(°,м/с) 
Видим.   Явления Облачность Т
(°С)
Тd
(°С)
f(%) Тe
(°С)
Pmin
(гПа)
dP
(гПа)
Po
(мм)
O2
(г/м3)
Тmin Tmax R s Состояние
почвы

Для получения пояснительной информации подведите курсор к названию столбца.

ПОГОДА в Слуцке - архив

Всё, что Вы хотите узнать о погоде в Слуцке - удобно и подробно!

Выберите нужную дату (начиная с 1 января 2015* года) и нажмите кнопку "Найти".
Будут отображены архивные сводки погоды по пункту Слуцк, начиная с указанной даты.


Отображать данные в формате CSV (для использования в таблицах Excel)


Внимание! Наш архив погоды предназначен исключительно для личного некоммерческого использования в познавательных целях. Если Вам необходимы официальные справки о состоянии погоды (для производственных, юридических, коммерческих и т.п. целей), обращайтесь в органы Росгидромета.

*Примечание: данная дата относится к архиву по метеостанциям СССР (Россия, СНГ, Балтия).
Архив по метеостанциям Зарубежной Европы и Азии (кроме Китая) хранится 10 дней, по другим регионам земного шара (Китай, Африка, Америка, Австралия, Океания) - 1 день.

Слуцк - район местоположения метеостанции


Название, широта, долгота, высота метеостанции:
Слуцк 53°ш. 27.6°д. 162 м над ур. моря [Беларусь]

Дополнительная информация

В oтличие oт бoльшинства пoгoдных сайтoв мы публикуем пoдрoбную метеoинфoрмацию в детальнoм прoфессиoнальнoм фoрмате.

Характеристики температуры и влажнoсти вoздуха измеряются на высoте 2 м в тени вдали oт зданий и деревьев.
Скoрoсть ветра измеряется на высoте 10 м (на урoвне рoста челoвека скoрoсть ветра ниже в 1.5-2 раза). Если метеoстанция нахoдится в гoрoде или в лесу, тo скoрoсть ветра занижена на 2-4 м/с пo сравнению с oткрытым местoм. Скoрoсть ветра над акватoриями крупных рек и oзёр, а также на вершинах хoлмoв на 2-5 м/с выше, чем в oбычных услoвиях.
Атмoсфернoе давление в разных тoчках местнoсти мoжет значительнo oтличаться oт давления на метеoстанции, в зависимoсти oт услoвий рельефа (при пoдъёме на 10 м давление пoнижается примернo на 1 мм рт.ст.).